| time (UTC) | temp C | wind direction | speed KPH | gust KPH | rain 1hr cm | rain 24hr cm | rain mn cm | humidity % | barometer mb |
| 20260506181043 | 18 | 40 | 14.5 | 16.1 | 0.00 | 0.00 | 0.00 | 63 | 1012.0 |
| 20260506180544 | 18 | 17 | 1.6 | 14.5 | 0.00 | 0.00 | 0.00 | 63 | 1012.0 |
| 20260506180042 | 18 | 92 | 6.4 | 11.3 | 0.00 | 0.00 | 0.00 | 62 | 1012.0 |
| 20260506175542 | 18 | 54 | 6.4 | 12.9 | 0.00 | 0.00 | 0.00 | 61 | 1012.0 |
| 20260506175044 | 18 | 34 | 3.2 | 9.7 | 0.00 | 0.00 | 0.00 | 60 | 1012.0 |
| 20260506174543 | 18 | 74 | 12.9 | 20.9 | 0.00 | 0.00 | 0.00 | 59 | 1012.0 |
| 20260506174042 | 18 | 90 | 8.0 | 20.9 | 0.00 | 0.00 | 0.00 | 59 | 1012.0 |
| 20260506173543 | 18 | 102 | 9.7 | 20.9 | 0.00 | 0.00 | 0.00 | 62 | 1012.0 |
| 20260506173043 | 18 | 81 | 6.4 | 16.1 | 0.00 | 0.00 | 0.00 | 62 | 1012.0 |
| 20260506172544 | 18 | 115 | 12.9 | 20.9 | 0.00 | 0.00 | 0.00 | 64 | 1012.0 |
| 20260506172043 | 18 | 87 | 20.9 | 24.1 | 0.00 | 0.00 | 0.00 | 62 | 1012.0 |
| 20260506171542 | 19 | 70 | 16.1 | 22.5 | 0.00 | 0.00 | 0.00 | 60 | 1012.0 |
| 20260506171043 | 19 | 106 | 9.7 | 17.7 | 0.00 | 0.00 | 0.00 | 55 | 1012.0 |
| 20260506170543 | 19 | 78 | 14.5 | 20.9 | 0.00 | 0.00 | 0.00 | 56 | 1012.0 |
| 20260506170043 | 19 | 73 | 16.1 | 24.1 | 0.00 | 0.00 | 0.00 | 58 | 1011.0 |
| 20260506165542 | 20 | 110 | 12.9 | 16.1 | 0.00 | 0.00 | 0.00 | 58 | 1012.0 |
| 20260506165042 | 19 | 108 | 17.7 | 22.5 | 0.00 | 0.00 | 0.00 | 59 | 1012.0 |
| 20260506164543 | 19 | 101 | 17.7 | 24.1 | 0.00 | 0.00 | 0.00 | 56 | 1012.0 |
| 20260506164043 | 20 | 107 | 14.5 | 25.7 | 0.00 | 0.00 | 0.00 | 50 | 1012.0 |
| 20260506163542 | 20 | 97 | 14.5 | 17.7 | 0.00 | 0.00 | 0.00 | 54 | 1012.0 |
| 20260506163043 | 20 | 55 | 12.9 | 27.4 | 0.00 | 0.00 | 0.00 | 54 | 1012.0 |
| 20260506162545 | 20 | 110 | 17.7 | 17.7 | 0.00 | 0.00 | 0.00 | 46 | 1012.0 |
| 20260506162042 | 20 | 105 | 6.4 | 16.1 | 0.00 | 0.00 | 0.00 | 45 | 1012.0 |
| 20260506161543 | 21 | 51 | 9.7 | 17.7 | 0.00 | 0.00 | 0.00 | 44 | 1012.0 |
| 20260506161043 | 20 | 26 | 8.0 | 17.7 | 0.00 | 0.00 | 0.00 | 46 | 1012.0 |
| 20260506160545 | 20 | 103 | 12.9 | 17.7 | 0.00 | 0.00 | 0.00 | 44 | 1012.0 |
| 20260506160043 | 20 | 49 | 14.5 | 17.7 | 0.00 | 0.00 | 0.00 | 46 | 1011.0 |
| 20260506155542 | 20 | 64 | 8.0 | 14.5 | 0.00 | 0.00 | 0.00 | 43 | 1012.0 |
| 20260506155043 | 20 | 110 | 11.3 | 14.5 | 0.00 | 0.00 | 0.00 | 43 | 1012.0 |
| 20260506154542 | 20 | 67 | 4.8 | 16.1 | 0.00 | 0.00 | 0.00 | 46 | 1011.0 |
| 20260506154043 | 20 | 77 | 8.0 | 22.5 | 0.00 | 0.00 | 0.00 | 48 | 1011.0 |
| 20260506153542 | 21 | 62 | 11.3 | 14.5 | 0.00 | 0.00 | 0.00 | 42 | 1012.0 |
| 20260506153043 | 21 | 18 | 4.8 | 9.7 | 0.00 | 0.00 | 0.00 | 42 | 1011.0 |
| 20260506152543 | 20 | 66 | 9.7 | 19.3 | 0.00 | 0.00 | 0.00 | 44 | 1012.0 |
| 20260506152043 | 20 | 55 | 11.3 | 17.7 | 0.00 | 0.00 | 0.00 | 46 | 1012.0 |
| 20260506151542 | 20 | 77 | 4.8 | 17.7 | 0.00 | 0.00 | 0.00 | 48 | 1012.0 |
| 20260506151043 | 20 | 98 | 4.8 | 14.5 | 0.00 | 0.00 | 0.00 | 46 | 1012.0 |
| 20260506150545 | 20 | 119 | 14.5 | 20.9 | 0.00 | 0.00 | 0.00 | 45 | 1012.0 |
| 20260506150045 | 20 | 111 | 9.7 | 11.3 | 0.00 | 0.00 | 0.00 | 44 | 1012.0 |
| 20260506145542 | 20 | 70 | 11.3 | 22.5 | 0.00 | 0.00 | 0.00 | 45 | 1012.0 |
| 20260506145043 | 20 | 106 | 22.5 | 22.5 | 0.00 | 0.00 | 0.00 | 45 | 1012.0 |
| 20260506144542 | 20 | 111 | 14.5 | 22.5 | 0.00 | 0.00 | 0.00 | 45 | 1012.0 |
| 20260506144042 | 20 | 63 | 9.7 | 25.7 | 0.00 | 0.00 | 0.00 | 46 | 1012.0 |
| 20260506143543 | 20 | 7 | 3.2 | 14.5 | 0.00 | 0.00 | 0.00 | 45 | 1012.0 |
| 20260506143044 | 19 | 99 | 11.3 | 19.3 | 0.00 | 0.00 | 0.00 | 46 | 1012.0 |
| 20260506142542 | 19 | 112 | 16.1 | 19.3 | 0.00 | 0.00 | 0.00 | 47 | 1012.0 |
| 20260506142043 | 19 | 115 | 9.7 | 11.3 | 0.00 | 0.00 | 0.00 | 48 | 1012.0 |
| 20260506141543 | 20 | 60 | 12.9 | 16.1 | 0.00 | 0.00 | 0.00 | 49 | 1012.0 |
| 20260506141043 | 19 | 91 | 6.4 | 22.5 | 0.00 | 0.00 | 0.00 | 51 | 1012.0 |
| 20260506140542 | 20 | 54 | 22.5 | 25.7 | 0.00 | 0.00 | 0.00 | 49 | 1013.0 |
| 20260506140044 | 20 | 8 | 8.0 | 17.7 | 0.00 | 0.00 | 0.00 | 47 | 1012.0 |
| 20260506135543 | 20 | 33 | 17.7 | 30.6 | 0.00 | 0.00 | 0.00 | 49 | 1012.0 |
| 20260506135043 | 20 | 66 | 22.5 | 30.6 | 0.00 | 0.00 | 0.00 | 48 | 1012.0 |
| 20260506134542 | 21 | 105 | 4.8 | 8.0 | 0.00 | 0.00 | 0.00 | 46 | 1012.0 |
| 20260506134042 | 22 | 260 | 3.2 | 11.3 | 0.00 | 0.00 | 0.00 | 40 | 1012.0 |
| 20260506133544 | 22 | 182 | 6.4 | 8.0 | 0.00 | 0.00 | 0.00 | 35 | 1012.0 |
| 20260506133042 | 22 | 194 | 6.4 | 8.0 | 0.00 | 0.00 | 0.00 | 36 | 1012.0 |
| 20260506132543 | 21 | 142 | 3.2 | 11.3 | 0.00 | 0.00 | 0.00 | 37 | 1012.0 |
| 20260506132044 | 21 | 146 | 4.8 | 16.1 | 0.00 | 0.00 | 0.00 | 37 | 1012.0 |
| 20260506131543 | 21 | 32 | 9.7 | 16.1 | 0.00 | 0.00 | 0.00 | 37 | 1013.0 |
| 20260506131042 | 21 | 218 | 4.8 | 14.5 | 0.00 | 0.00 | 0.00 | 37 | 1013.0 |
| 20260506130544 | 21 | 146 | 8.0 | 20.9 | 0.00 | 0.00 | 0.00 | 35 | 1013.0 |
| 20260506130042 | 21 | 207 | 6.4 | 17.7 | 0.00 | 0.00 | 0.00 | 36 | 1013.0 |
| 20260506125543 | 21 | 155 | 16.1 | 24.1 | 0.00 | 0.00 | 0.00 | 38 | 1013.0 |
| 20260506125043 | 21 | 202 | 8.0 | 16.1 | 0.00 | 0.00 | 0.00 | 38 | 1013.0 |
| 20260506124542 | 20 | 146 | 9.7 | 17.7 | 0.00 | 0.00 | 0.00 | 39 | 1013.0 |
| 20260506124042 | 20 | 183 | 8.0 | 17.7 | 0.00 | 0.00 | 0.00 | 39 | 1013.0 |
| 20260506123542 | 20 | 186 | 16.1 | 20.9 | 0.00 | 0.00 | 0.00 | 39 | 1013.0 |
| 20260506123043 | 20 | 147 | 14.5 | 24.1 | 0.00 | 0.00 | 0.00 | 37 | 1013.0 |
| 20260506122543 | 20 | 108 | 1.6 | 16.1 | 0.00 | 0.00 | 0.00 | 39 | 1013.0 |
| 20260506122042 | 21 | 162 | 19.3 | 20.9 | 0.00 | 0.00 | 0.00 | 37 | 1013.0 |
| 20260506121542 | 20 | 136 | 8.0 | 12.9 | 0.00 | 0.00 | 0.00 | 40 | 1013.0 |
| 20260506121043 | 20 | 136 | 3.2 | 14.5 | 0.00 | 0.00 | 0.00 | 40 | 1013.0 |
| 20260506120544 | 20 | 230 | 6.4 | 16.1 | 0.00 | 0.00 | 0.00 | 40 | 1013.0 |
| 20260506120044 | 20 | 147 | 9.7 | 16.1 | 0.00 | 0.00 | 0.00 | 39 | 1013.0 |
| 20260506115543 | 20 | 179 | 16.1 | 22.5 | 0.00 | 0.00 | 0.00 | 38 | 1013.0 |
| 20260506115043 | 20 | 139 | 9.7 | 12.9 | 0.00 | 0.00 | 0.00 | 39 | 1013.0 |
| 20260506114543 | 20 | 169 | 8.0 | 25.7 | 0.00 | 0.00 | 0.00 | 39 | 1013.0 |
| 20260506114043 | 19 | 147 | 4.8 | 11.3 | 0.00 | 0.00 | 0.00 | 41 | 1013.0 |
| 20260506113542 | 20 | 311 | 6.4 | 8.0 | 0.00 | 0.00 | 0.00 | 41 | 1013.0 |
| 20260506113043 | 20 | 165 | 8.0 | 11.3 | 0.00 | 0.00 | 0.00 | 40 | 1013.0 |
| 20260506112542 | 19 | 121 | 6.4 | 17.7 | 0.00 | 0.00 | 0.00 | 41 | 1013.0 |
| 20260506112042 | 20 | 202 | 6.4 | 11.3 | 0.00 | 0.00 | 0.00 | 40 | 1013.0 |
| 20260506111542 | 19 | 233 | 4.8 | 14.5 | 0.00 | 0.00 | 0.00 | 41 | 1013.0 |
| 20260506111042 | 19 | 158 | 11.3 | 20.9 | 0.00 | 0.00 | 0.00 | 41 | 1013.0 |
| 20260506110542 | 19 | 236 | 14.5 | 14.5 | 0.00 | 0.00 | 0.00 | 41 | 1014.0 |
| 20260506110043 | 18 | 216 | 8.0 | 9.7 | 0.00 | 0.00 | 0.00 | 42 | 1013.0 |
| 20260506105543 | 18 | 133 | 4.8 | 11.3 | 0.00 | 0.00 | 0.00 | 43 | 1013.0 |
| 20260506105042 | 18 | 126 | 6.4 | 8.0 | 0.00 | 0.00 | 0.00 | 46 | 1013.0 |
| 20260506104542 | 19 | 291 | 4.8 | 11.3 | 0.00 | 0.00 | 0.00 | 45 | 1013.0 |
| 20260506104045 | 19 | 59 | 8.0 | 12.9 | 0.00 | 0.00 | 0.00 | 45 | 1013.0 |
| 20260506103542 | 18 | 13 | 6.4 | 14.5 | 0.00 | 0.00 | 0.00 | 47 | 1013.0 |
| 20260506103043 | 18 | 73 | 3.2 | 12.9 | 0.00 | 0.00 | 0.00 | 47 | 1014.0 |
| 20260506102543 | 18 | 57 | 1.6 | 4.8 | 0.00 | 0.00 | 0.00 | 46 | 1014.0 |
| 20260506102042 | 18 | 120 | 4.8 | 17.7 | 0.00 | 0.00 | 0.00 | 45 | 1014.0 |
| 20260506101542 | 18 | 348 | 6.4 | 6.4 | 0.00 | 0.00 | 0.00 | 45 | 1013.0 |
| 20260506101042 | 18 | 306 | 11.3 | 14.5 | 0.00 | 0.00 | 0.00 | 45 | 1014.0 |
| 20260506100542 | 18 | 56 | 4.8 | 11.3 | 0.00 | 0.00 | 0.00 | 45 | 1014.0 |
| 20260506100051 | 18 | 79 | 4.8 | 22.5 | 0.00 | 0.00 | 0.00 | 44 | 1014.0 |
| 20260506095543 | 18 | 73 | 6.4 | 14.5 | 0.00 | 0.00 | 0.00 | 46 | 1014.0 |
| 20260506095043 | 18 | 338 | 12.9 | 27.4 | 0.00 | 0.00 | 0.00 | 46 | 1014.0 |
| 20260506094542 | 18 | 62 | 14.5 | 35.4 | 0.00 | 0.00 | 0.00 | 43 | 1013.0 |
| 20260506094042 | 18 | 184 | 9.7 | 17.7 | 0.00 | 0.00 | 0.00 | 44 | 1014.0 |
| 20260506093543 | 18 | 191 | 8.0 | 11.3 | 0.00 | 0.00 | 0.00 | 42 | 1014.0 |
| 20260506093042 | 18 | 211 | 14.5 | 17.7 | 0.00 | 0.00 | 0.00 | 44 | 1014.0 |
| 20260506092545 | 18 | 225 | 3.2 | 12.9 | 0.00 | 0.00 | 0.00 | 43 | 1014.0 |
| 20260506092042 | 18 | 164 | 11.3 | 14.5 | 0.00 | 0.00 | 0.00 | 45 | 1014.0 |
| 20260506091543 | 17 | 349 | 0.0 | 14.5 | 0.00 | 0.00 | 0.00 | 45 | 1014.0 |
| 20260506091043 | 17 | 229 | 6.4 | 19.3 | 0.00 | 0.00 | 0.00 | 44 | 1014.0 |
| 20260506090542 | 17 | 213 | 11.3 | 12.9 | 0.00 | 0.00 | 0.00 | 45 | 1014.0 |
| 20260506090042 | 17 | 149 | 12.9 | 17.7 | 0.00 | 0.00 | 0.00 | 45 | 1014.0 |
| 20260506085542 | 17 | 230 | 17.7 | 22.5 | 0.00 | 0.00 | 0.00 | 45 | 1013.0 |
| 20260506085042 | 17 | 190 | 6.4 | 22.5 | 0.00 | 0.00 | 0.00 | 46 | 1014.0 |
| 20260506084543 | 17 | 242 | 6.4 | 24.1 | 0.00 | 0.00 | 0.00 | 48 | 1013.0 |
| 20260506084043 | 17 | 152 | 22.5 | 29.0 | 0.00 | 0.00 | 0.00 | 47 | 1013.0 |
| 20260506083543 | 17 | 157 | 14.5 | 20.9 | 0.00 | 0.00 | 0.00 | 48 | 1014.0 |
| 20260506083043 | 16 | 239 | 4.8 | 19.3 | 0.00 | 0.00 | 0.00 | 48 | 1014.0 |
| 20260506082543 | 16 | 154 | 8.0 | 24.1 | 0.00 | 0.00 | 0.00 | 49 | 1013.0 |
| 20260506082042 | 16 | 218 | 8.0 | 14.5 | 0.00 | 0.00 | 0.00 | 50 | 1013.0 |
| 20260506081543 | 16 | 249 | 6.4 | 17.7 | 0.00 | 0.00 | 0.00 | 51 | 1013.0 |
| 20260506081043 | 16 | 166 | 1.6 | 14.5 | 0.00 | 0.00 | 0.00 | 52 | 1013.0 |
| 20260506080543 | 16 | 184 | 8.0 | 20.9 | 0.00 | 0.00 | 0.00 | 52 | 1014.0 |
| 20260506073043 | 15 | 173 | 12.9 | 19.3 | 0.00 | 0.00 | 0.00 | 53 | 1013.0 |
| 20260506072543 | 16 | 321 | 3.2 | 8.0 | 0.00 | 0.00 | 0.00 | 54 | 1013.0 |
| 20260506072042 | 15 | 6 | 1.6 | 4.8 | 0.00 | 0.00 | 0.00 | 56 | 1013.0 |
| 20260506071542 | 15 | 98 | 6.4 | 8.0 | 0.00 | 0.00 | 0.00 | 55 | 1013.0 |
| 20260506071044 | 15 | 261 | 1.6 | 6.4 | 0.00 | 0.00 | 0.00 | 56 | 1013.0 |
| 20260506070542 | 15 | 331 | 4.8 | 9.7 | 0.00 | 0.00 | 0.00 | 57 | 1013.0 |
| 20260506062043 | 13 | 124 | 4.8 | 9.7 | 0.00 | 0.00 | 0.00 | 60 | 1013.0 |
| 20260506061543 | 13 | 42 | 3.2 | 3.2 | 0.00 | 0.00 | 0.00 | 60 | 1013.0 |
| 20260506061043 | 13 | 171 | 4.8 | 6.4 | 0.00 | 0.00 | 0.00 | 60 | 1013.0 |
| 20260506060543 | 13 | 147 | 0.0 | 6.4 | 0.00 | 0.00 | 0.00 | 60 | 1013.0 |
| 20260506051043 | 12 | 109 | 4.8 | 14.5 | 0.00 | 0.00 | 0.00 | 66 | 1013.0 |
| 20260506050542 | 12 | 152 | 11.3 | 12.9 | 0.00 | 0.00 | 0.00 | 65 | 1013.0 |
| 20260506045042 | 12 | 108 | 8.0 | 9.7 | 0.00 | 0.00 | 0.00 | 67 | 1013.0 |
| 20260506044542 | 12 | 138 | 8.0 | 9.7 | 0.00 | 0.00 | 0.00 | 65 | 1013.0 |
| 20260506044042 | 12 | 154 | 4.8 | 12.9 | 0.00 | 0.00 | 0.00 | 65 | 1013.0 |
| 20260506043542 | 12 | 281 | 1.6 | 8.0 | 0.00 | 0.00 | 0.00 | 67 | 1012.0 |
| 20260506043045 | 11 | 147 | 4.8 | 16.1 | 0.00 | 0.00 | 0.00 | 68 | 1013.0 |
| 20260506042543 | 11 | 183 | 4.8 | 11.3 | 0.00 | 0.00 | 0.00 | 69 | 1012.0 |
| 20260506042042 | 11 | 172 | 3.2 | 6.4 | 0.00 | 0.00 | 0.00 | 70 | 1013.0 |
| 20260506041543 | 11 | 167 | 1.6 | 4.8 | 0.00 | 0.00 | 0.00 | 70 | 1013.0 |
| 20260506041043 | 11 | 209 | 4.8 | 4.8 | 0.00 | 0.00 | 0.00 | 71 | 1013.0 |
| 20260506040543 | 11 | 154 | 3.2 | 4.8 | 0.00 | 0.00 | 0.00 | 71 | 1013.0 |
| 20260506040042 | 11 | 115 | 0.0 | 3.2 | 0.00 | 0.00 | 0.00 | 71 | 1013.0 |
| 20260506035542 | 11 | 110 | 4.8 | 4.8 | 0.00 | 0.00 | 0.00 | 71 | 1013.0 |
| 20260506035042 | 12 | 143 | 4.8 | 4.8 | 0.00 | 0.00 | 0.00 | 70 | 1013.0 |
| 20260506034543 | 12 | 187 | 3.2 | 4.8 | 0.00 | 0.00 | 0.00 | 70 | 1013.0 |
| 20260506034043 | 12 | 146 | 4.8 | 6.4 | 0.00 | 0.00 | 0.00 | 70 | 1013.0 |
| 20260506033542 | 12 | 112 | 3.2 | 6.4 | 0.00 | 0.00 | 0.00 | 70 | 1013.0 |
| 20260506033044 | 12 | 138 | 6.4 | 6.4 | 0.00 | 0.00 | 0.00 | 69 | 1012.0 |
| 20260506032544 | 12 | 141 | 6.4 | 8.0 | 0.00 | 0.00 | 0.00 | 69 | 1013.0 |
| 20260506032042 | 12 | 145 | 6.4 | 8.0 | 0.00 | 0.00 | 0.00 | 69 | 1013.0 |
| 20260506031542 | 12 | 141 | 9.7 | 11.3 | 0.00 | 0.00 | 0.00 | 68 | 1013.0 |
| 20260506031042 | 12 | 147 | 11.3 | 11.3 | 0.00 | 0.00 | 0.00 | 68 | 1013.0 |
| 20260506030542 | 12 | 168 | 6.4 | 8.0 | 0.00 | 0.00 | 0.00 | 68 | 1012.0 |
| 20260506030043 | 12 | 157 | 0.0 | 8.0 | 0.00 | 0.00 | 0.00 | 68 | 1012.0 |
| 20260506025542 | 12 | 120 | 1.6 | 3.2 | 0.00 | 0.00 | 0.00 | 68 | 1012.0 |
| 20260506025042 | 12 | 121 | 4.8 | 6.4 | 0.00 | 0.00 | 0.00 | 68 | 1012.0 |
| 20260506024542 | 12 | 165 | 11.3 | 11.3 | 0.00 | 0.00 | 0.00 | 68 | 1013.0 |
| 20260506024043 | 12 | 156 | 4.8 | 12.9 | 0.00 | 0.00 | 0.00 | 68 | 1012.0 |
| 20260506023542 | 12 | 169 | 6.4 | 16.1 | 0.00 | 0.00 | 0.00 | 68 | 1012.0 |
| 20260506023043 | 12 | 192 | 8.0 | 16.1 | 0.00 | 0.00 | 0.00 | 69 | 1012.0 |
| 20260506022542 | 12 | 190 | 9.7 | 22.5 | 0.00 | 0.00 | 0.00 | 69 | 1012.0 |
| 20260506022042 | 12 | 184 | 4.8 | 16.1 | 0.00 | 0.00 | 0.00 | 69 | 1012.0 |
| 20260506021543 | 12 | 172 | 6.4 | 17.7 | 0.00 | 0.00 | 0.00 | 68 | 1012.0 |
| 20260506021043 | 12 | 195 | 4.8 | 17.7 | 0.00 | 0.00 | 0.00 | 67 | 1012.0 |
| 20260506020542 | 12 | 164 | 11.3 | 16.1 | 0.00 | 0.00 | 0.00 | 67 | 1012.0 |
| 20260506020043 | 13 | 168 | 6.4 | 17.7 | 0.00 | 0.00 | 0.00 | 65 | 1012.0 |
| 20260506015542 | 13 | 189 | 8.0 | 11.3 | 0.00 | 0.00 | 0.00 | 64 | 1012.0 |
| 20260506015042 | 13 | 127 | 6.4 | 12.9 | 0.00 | 0.00 | 0.00 | 63 | 1012.0 |
| 20260506014542 | 13 | 186 | 16.1 | 19.3 | 0.00 | 0.00 | 0.00 | 62 | 1012.0 |
| 20260506014042 | 13 | 209 | 16.1 | 20.9 | 0.00 | 0.00 | 0.00 | 62 | 1012.0 |
| 20260506013542 | 13 | 221 | 12.9 | 20.9 | 0.00 | 0.00 | 0.00 | 63 | 1012.0 |
| 20260506013042 | 13 | 219 | 9.7 | 19.3 | 0.00 | 0.00 | 0.00 | 64 | 1012.0 |
| 20260506012542 | 13 | 206 | 8.0 | 14.5 | 0.00 | 0.00 | 0.00 | 65 | 1012.0 |
| 20260506012042 | 13 | 138 | 4.8 | 8.0 | 0.00 | 0.00 | 0.00 | 65 | 1012.0 |
| 20260506011542 | 13 | 220 | 4.8 | 9.7 | 0.00 | 0.00 | 0.00 | 66 | 1012.0 |
| 20260506011043 | 13 | 353 | 0.0 | 8.0 | 0.00 | 0.00 | 0.00 | 66 | 1012.0 |
| 20260506010542 | 13 | 197 | 6.4 | 11.3 | 0.00 | 0.00 | 0.00 | 66 | 1012.0 |
| 20260506010044 | 13 | 115 | 8.0 | 11.3 | 0.00 | 0.00 | 0.00 | 65 | 1012.0 |
| 20260506005543 | 13 | 197 | 9.7 | 12.9 | 0.00 | 0.00 | 0.00 | 66 | 1012.0 |
| 20260506005043 | 13 | 168 | 4.8 | 8.0 | 0.00 | 0.00 | 0.00 | 66 | 1012.0 |
| 20260506004543 | 13 | 220 | 3.2 | 17.7 | 0.00 | 0.00 | 0.00 | 66 | 1012.0 |
| 20260506004042 | 13 | 122 | 3.2 | 17.7 | 0.00 | 0.00 | 0.00 | 66 | 1012.0 |
| 20260506003543 | 13 | 158 | 11.3 | 25.7 | 0.00 | 0.00 | 0.00 | 66 | 1012.0 |
| 20260506003042 | 13 | 165 | 6.4 | 17.7 | 0.00 | 0.00 | 0.00 | 65 | 1013.0 |
| 20260506002542 | 13 | 198 | 6.4 | 16.1 | 0.00 | 0.00 | 0.00 | 64 | 1012.0 |
| 20260506002042 | 13 | 169 | 9.7 | 9.7 | 0.00 | 0.00 | 0.00 | 63 | 1013.0 |
| 20260506001542 | 14 | 193 | 12.9 | 24.1 | 0.00 | 0.00 | 0.00 | 62 | 1013.0 |
| 20260506001042 | 14 | 163 | 9.7 | 14.5 | 0.00 | 0.00 | 0.00 | 61 | 1012.0 |
| 20260506000543 | 14 | 288 | 3.2 | 12.9 | 0.00 | 0.00 | 0.00 | 61 | 1013.0 |
| 20260506000043 | 14 | 171 | 9.7 | 9.7 | 0.00 | 0.00 | 0.56 | 60 | 1013.0 |
| 20260505235542 | 14 | 242 | 4.8 | 19.3 | 0.00 | 0.00 | 0.56 | 58 | 1013.0 |
| 20260505235042 | 15 | 166 | 4.8 | 17.7 | 0.00 | 0.00 | 0.56 | 57 | 1013.0 |
| 20260505234542 | 15 | 230 | 4.8 | 14.5 | 0.00 | 0.00 | 0.56 | 56 | 1013.0 |
| 20260505234043 | 15 | 185 | 20.9 | 25.7 | 0.00 | 0.00 | 0.56 | 56 | 1013.0 |
| 20260505233542 | 15 | 183 | 8.0 | 27.4 | 0.00 | 0.00 | 0.56 | 55 | 1013.0 |
| 20260505233042 | 15 | 196 | 4.8 | 22.5 | 0.00 | 0.00 | 0.56 | 55 | 1013.0 |
| 20260505232542 | 14 | 182 | 9.7 | 17.7 | 0.00 | 0.00 | 0.56 | 58 | 1012.0 |
| 20260505232043 | 13 | 296 | 3.2 | 8.0 | 0.00 | 0.00 | 0.56 | 60 | 1013.0 |
| 20260505231543 | 13 | 130 | 4.8 | 6.4 | 0.00 | 0.00 | 0.56 | 61 | 1013.0 |
| 20260505231042 | 13 | 268 | 4.8 | 11.3 | 0.00 | 0.00 | 0.56 | 61 | 1012.0 |
| 20260505230542 | 13 | 168 | 8.0 | 14.5 | 0.00 | 0.00 | 0.56 | 61 | 1012.0 |
| 20260505230043 | 13 | 116 | 6.4 | 14.5 | 0.00 | 0.00 | 0.56 | 61 | 1012.0 |
| 20260505225543 | 14 | 154 | 4.8 | 8.0 | 0.00 | 0.00 | 0.56 | 59 | 1012.0 |
| 20260505225042 | 14 | 171 | 3.2 | 9.7 | 0.00 | 0.00 | 0.56 | 59 | 1012.0 |
| 20260505224543 | 14 | 161 | 0.0 | 8.0 | 0.00 | 0.00 | 0.56 | 59 | 1012.0 |
| 20260505224043 | 14 | 171 | 4.8 | 6.4 | 0.00 | 0.00 | 0.56 | 60 | 1012.0 |
| 20260505223544 | 14 | 200 | 4.8 | 4.8 | 0.00 | 0.00 | 0.56 | 60 | 1012.0 |
| 20260505223043 | 14 | 270 | 0.0 | 8.0 | 0.00 | 0.00 | 0.56 | 59 | 1012.0 |
| 20260505222546 | 15 | 180 | 4.8 | 4.8 | 0.00 | 0.00 | 0.56 | 58 | 1013.0 |
| 20260505222052 | 15 | 191 | 3.2 | 4.8 | 0.00 | 0.00 | 0.56 | 57 | 1013.0 |
| 20260505221542 | 15 | 145 | 6.4 | 8.0 | 0.00 | 0.00 | 0.56 | 55 | 1013.0 |
| 20260505221043 | 15 | 344 | 1.6 | 3.2 | 0.00 | 0.00 | 0.56 | 54 | 1013.0 |
| 20260505220542 | 15 | 202 | 4.8 | 4.8 | 0.00 | 0.00 | 0.56 | 54 | 1013.0 |
| 20260505220042 | 15 | 235 | 3.2 | 6.4 | 0.00 | 0.00 | 0.56 | 54 | 1013.0 |
| 20260505215542 | 15 | 324 | 4.8 | 11.3 | 0.00 | 0.00 | 0.56 | 56 | 1013.0 |
| 20260505215042 | 15 | 203 | 4.8 | 17.7 | 0.00 | 0.00 | 0.56 | 57 | 1013.0 |
| 20260505214542 | 15 | 251 | 9.7 | 27.4 | 0.00 | 0.00 | 0.56 | 61 | 1013.0 |
| 20260505214042 | 15 | 160 | 14.5 | 17.7 | 0.00 | 0.00 | 0.56 | 59 | 1013.0 |
| 20260505213542 | 15 | 186 | 4.8 | 12.9 | 0.00 | 0.00 | 0.56 | 64 | 1013.0 |
| 20260505213042 | 15 | 222 | 17.7 | 25.7 | 0.00 | 0.00 | 0.56 | 66 | 1013.0 |
| 20260505212543 | 15 | 355 | 6.4 | 27.4 | 0.00 | 0.00 | 0.56 | 68 | 1013.0 |
| 20260505212043 | 15 | 114 | 4.8 | 16.1 | 0.00 | 0.00 | 0.56 | 71 | 1014.0 |
| 20260505211542 | 15 | 224 | 11.3 | 24.1 | 0.00 | 0.00 | 0.56 | 78 | 1014.0 |
| 20260505211043 | 15 | 197 | 3.2 | 8.0 | 0.00 | 0.00 | 0.56 | 79 | 1014.0 |
| 20260505210542 | 15 | 154 | 1.6 | 8.0 | 0.00 | 0.00 | 0.56 | 79 | 1014.0 |
| 20260505210043 | 15 | 214 | 3.2 | 6.4 | 0.00 | 0.00 | 0.56 | 79 | 1013.0 |
| 20260505205542 | 15 | 200 | 4.8 | 8.0 | 0.00 | 0.00 | 0.56 | 78 | 1013.0 |
| 20260505205044 | 15 | 211 | 3.2 | 8.0 | 0.00 | 0.00 | 0.56 | 78 | 1013.0 |
| 20260505204542 | 15 | 227 | 3.2 | 9.7 | 0.00 | 0.00 | 0.56 | 78 | 1013.0 |
| 20260505204046 | 15 | 311 | 4.8 | 4.8 | 0.00 | 0.00 | 0.56 | 79 | 1013.0 |
| 20260505203543 | 15 | 330 | 0.0 | 6.4 | 0.00 | 0.00 | 0.56 | 80 | 1013.0 |
| 20260505203042 | 15 | 186 | 4.8 | 4.8 | 0.00 | 0.00 | 0.56 | 81 | 1013.0 |
| 20260505202543 | 15 | 186 | 3.2 | 4.8 | 0.00 | 0.00 | 0.56 | 82 | 1013.0 |
| 20260505202042 | 15 | 179 | 4.8 | 4.8 | 0.00 | 0.00 | 0.56 | 82 | 1013.0 |
| 20260505201542 | 15 | 149 | 3.2 | 8.0 | 0.00 | 0.00 | 0.56 | 83 | 1013.0 |
| 20260505201043 | 15 | 185 | 6.4 | 8.0 | 0.00 | 0.00 | 0.56 | 84 | 1013.0 |
| 20260505200544 | 15 | 123 | 3.2 | 6.4 | 0.00 | 0.00 | 0.56 | 84 | 1013.0 |
| 20260505200044 | 15 | 146 | 4.8 | 6.4 | 0.00 | 0.00 | 0.56 | 83 | 1012.0 |
| 20260505195542 | 15 | 146 | 3.2 | 8.0 | 0.00 | 0.00 | 0.56 | 82 | 1012.0 |
| 20260505195046 | 15 | 141 | 6.4 | 8.0 | 0.00 | 0.00 | 0.56 | 81 | 1012.0 |
| 20260505194542 | 15 | 136 | 4.8 | 4.8 | 0.00 | 0.00 | 0.56 | 80 | 1012.0 |
| 20260505194042 | 15 | 152 | 4.8 | 4.8 | 0.00 | 0.00 | 0.56 | 81 | 1012.0 |
| 20260505193543 | 15 | 156 | 1.6 | 1.6 | 0.00 | 0.00 | 0.56 | 81 | 1012.0 |
| 20260505193042 | 15 | 5 | 3.2 | 4.8 | 0.00 | 0.00 | 0.56 | 81 | 1012.0 |
| 20260505192542 | 15 | 347 | 6.4 | 8.0 | 0.00 | 0.00 | 0.56 | 81 | 1012.0 |
| 20260505192043 | 15 | 106 | 3.2 | 6.4 | 0.00 | 0.00 | 0.56 | 81 | 1012.0 |
| 20260505191542 | 15 | 84 | 4.8 | 6.4 | 0.00 | 0.00 | 0.56 | 81 | 1012.0 |
| 20260505191042 | 16 | 70 | 3.2 | 6.4 | 0.00 | 0.00 | 0.56 | 82 | 1012.0 |
| 20260505190543 | 16 | 93 | 1.6 | 4.8 | 0.00 | 0.00 | 0.56 | 81 | 1012.0 |
| 20260505190043 | 16 | 112 | 4.8 | 9.7 | 0.00 | 0.00 | 0.56 | 79 | 1012.0 |
| 20260505185542 | 16 | 113 | 3.2 | 6.4 | 0.00 | 0.00 | 0.56 | 78 | 1012.0 |
| 20260505185042 | 16 | 51 | 4.8 | 9.7 | 0.00 | 0.00 | 0.56 | 76 | 1012.0 |
| 20260505184543 | 16 | 107 | 3.2 | 8.0 | 0.00 | 0.00 | 0.56 | 72 | 1012.0 |
| 20260505184042 | 16 | 109 | 3.2 | 6.4 | 0.00 | 0.00 | 0.56 | 71 | 1012.0 |
| 20260505183543 | 16 | 82 | 6.4 | 8.0 | 0.00 | 0.00 | 0.56 | 73 | 1012.0 |
| 20260505183043 | 16 | 71 | 3.2 | 4.8 | 0.00 | 0.00 | 0.56 | 73 | 1012.0 |
| 20260505182545 | 16 | 41 | 3.2 | 3.2 | 0.00 | 0.00 | 0.56 | 73 | 1012.0 |
| 20260505182043 | 16 | 63 | 3.2 | 4.8 | 0.00 | 0.00 | 0.56 | 73 | 1012.0 |
| 20260505181542 | 16 | 58 | 3.2 | 4.8 | 0.00 | 0.00 | 0.56 | 72 | 1012.0 |